sat.trackr.live / text

‹ back to catalog

STARLINK-2314

NORAD 47788 · 2021-018B

PAYLOAD ACTIVE UNKNOWN

§ Identity

Operator
Country
US
Launch date
2021-03-11
Launch site
AFETR
Launch vehicle
Mass (kg)
RCS (m²)

Purposes: comms

External: N2YO · Heavens-Above · Gunter

§ Orbital elements

Epoch: 2026-05-25T04:12:51.370848Z

Period
93.66 min
Inclination
53.1551°
Eccentricity
0.0003826
Mean motion
15.37410368 rev/d
Perigee alt
451.2 km
Apogee alt
456.4 km
Semi-major
6,831.9 km
B*
1.1353e-3
RAAN
222.4963°
Arg perigee
336.9439°
Mean anomaly
23.1393°
Rev number
28,880

§ Raw data

STARLINK-23141 47788U 21018B   26145.17559457  .00042101  00000+0  11353-2 0  99992 47788  53.1551 222.4963 0003826 336.9439  23.1393 15.37410368288805

JSON: /api/v1/satellites/47788 · /tle

For live sub-satellite position, see the globe view (requires WebGL).

§ Visibility from observer

Set your observer location to see the next 7 days of passes ≥ 10°. The values pass through the URL so the page stays shareable.

No JS? Fill the form by hand. The geolocation button needs JavaScript.